Probability
4 8 14 20 20 18 21 23 16 7 6 17 35 48 46 25 8 4 2 0 0 0 0 0 0 0 0 0 0 0 0 0 0 1 2 2 3 3
3 5 11 16 17 17 20 23 20 13 10 22 42 54 44 22 7 5 2 0 0 0 0 0 0 0 0 0 0 0 0 0 0 0 1 1 2 2
2 3 6 9 11 13 16 22 25 23 19 27 45 57 48 27 11 5 2 0 0 0 0 0 0 0 0 0 0 0 0 0 0 0 0 0 1 1
2 2 3 4 6 8 12 18 27 31 28 30 40 51 50 37 19 7 2 0 0 0 0 0 0 0 0 0 0 0 0 0 0 0 0 0 0 0
2 3 2 3 4 5 6 12 22 30 33 33 37 42 44 38 24 9 3 1 0 0 0 0 0 0 0 0 0 0 0 0 0 0 0 0 0 0
2 3 2 1 2 2 3 7 15 25 31 32 33 36 40 36 22 9 3 1 0 0 0 0 0 0 0 0 0 0 0 0 0 0 0 0 0 0
2 2 2 1 0 1 2 5 10 17 23 26 26 29 36 34 22 9 2 0 0 0 0 0 0 0 0 0 0 0 0 0 0 0 0 0 0 0
3 2 1 0 0 0 1 3 5 8 12 16 19 21 27 32 23 9 1 0 0 0 0 0 0 0 0 0 0 0 0 0 0 0 0 0 0 0
2 1 0 0 0 0 0 1 1 2 4 8 11 14 18 23 19 8 1 0 0 0 0 0 0 0 0 0 0 0 0 0 0 0 0 0 0 0
2 1 0 0 0 0 0 0 0 0 0 2 4 7 9 11 10 6 2 0 0 0 0 0 0 0 0 0 0 0 0 0 0 0 0 0 0 0
1 0 0 0 0 0 0 0 0 0 0 0 1 1 2 3 4 4 2 0 0 0 0 0 0 0 0 0 0 0 0 0 0 0 0 0 0 0
0 0 0 0 0 0 0 0 0 0 0 0 0 0 0 0 1 2 1 0 0 0 0 0 0 0 0 0 0 0 0 0 0 0 0 0 0 0
0 0 0 0 0 0 0 0 0 0 0 0 0 0 0 1 1 1 0 0 0 0 0 0 0 0 0 0 0 0 0 0 0 0 0 0 0 0
0 0 0 0 0 0 0 0 0 0 0 0 0 0 0 1 2 1 0 0 0 0 0 0 0 0 0 0 0 0 0 0 0 0 0 0 0 0
0 0 0 0 0 0 0 0 0 0 0 0 0 0 0 1 1 1 0 0 0 0 0 0 0 0 0 0 0 0 0 0 0 0 0 0 0 0
0 0 0 0 0 0 0 0 0 0 0 0 0 0 0 0 0 0 0 0 0 0 0 0 0 0 0 0 0 0 0 0 0 0 0 0 0 0
0 0 0 0 0 0 0 0 0 0 0 0 0 0 0 0 0 0 0 0 0 0 0 0 0 0 0 0 0 0 0 0 0 0 0 0 0 0
0 0 0 0 0 0 0 0 0 0 0 0 0 0 0 0 0 0 0 0 0 0 0 0 0 0 0 0 0 0 0 0 0 0 0 0 0 0
0 0 0 0 0 0 0 0 0 0 0 0 0 0 0 0 0 0 0 0 0 0 0 0 0 0 0 0 0 0 0 0 0 0 0 0 0 0
0 0 0 0 0 0 0 0 0 0 0 0 0 0 0 0 0 0 0 0 0 0 0 0 0 0 0 0 0 0 0 0 0 0 0 0 0 0
0 0 0 0 0 0 0 0 0 0 0 0 0 0 0 0 0 0 0 0 0 0 0 0 0 0 0 0 0 0 0 0 0 0 0 0 0 0
0 0 0 0 0 0 0 0 0 0 0 0 0 0 0 0 0 0 0 0 0 0 0 0 0 0 0 0 0 0 0 0 0 0 0 0 0 0
0 0 0 0 0 0 0 0 0 0 0 0 0 0 0 0 0 0 0 0 0 0 0 0 0 0 0 0 0 0 0 0 0 0 0 0 0 0
Wind_Speed
4 4 4 4 5 5 4 2 2 3 3 4 4 5 5 6 7 4 5 6 8 9 10 11 11 12 12 13 14 14 14 14 14 14 14 14 14 14
4 4 4 4 4 5 5 4 3 2 3 2 4 6 6 7 6 4 6 7 4 5 7 9 10 10 11 11 12 12 12 13 13 12 11 11 11 11
6 6 6 5 4 4 4 4 4 3 3 2 3 6 6 7 6 5 6 5 4 4 4 6 7 8 9 9 10 10 10 10 10 9 8 7 7 7
8 8 7 6 6 4 4 5 4 4 3 3 4 5 6 8 7 5 5 6 6 7 7 7 7 7 8 8 9 9 9 9 9 9 9 8 7 6
9 9 9 8 7 5 5 4 4 4 2 3 4 5 5 7 8 7 8 6 6 7 10 11 11 12 11 11 11 12 12 12 12 11 11 10 10 10
9 9 9 9 8 7 6 5 4 3 3 3 3 4 6 8 8 7 6 5 5 5 8 9 13 15 14 13 13 14 14 14 14 14 14 14 14 13
10 10 10 11 12 9 7 7 6 5 3 4 4 4 5 8 8 6 8 6 5 4 5 5 6 7 8 11 13 15 15 15 16 16 16 15 15 14
9 10 10 11 12 13 13 11 9 7 6 5 5 5 6 7 7 8 9 8 4 3 4 5 5 6 5 6 10 14 15 16 16 17 16 15 14 14
9 9 11 12 13 10 12 13 12 11 9 6 6 5 4 5 7 10 10 8 6 6 6 5 5 6 6 7 12 14 15 16 16 17 16 15 14 14
10 10 10 9 9 9 10 11 10 10 11 8 6 6 4 3 5 7 8 8 9 5 5 5 4 5 6 6 11 13 13 15 16 16 16 15 15 14
11 10 9 10 10 11 9 9 9 8 11 12 9 7 7 7 6 6 10 11 8 4 2 5 5 5 5 5 7 11 11 12 14 15 16 16 15 14
8 7 9 11 12 12 9 8 8 8 8 9 8 8 7 8 10 9 10 12 9 5 4 6 7 5 5 3 4 5 6 8 10 12 14 13 11 7
6 6 6 11 12 12 9 6 7 6 7 8 8 7 7 7 8 8 8 10 10 6 9 7 8 5 6 6 4 4 5 5 5 6 7 7 4 4
4 4 5 10 12 13 9 6 6 5 4 6 6 7 7 8 8 8 8 7 6 8 13 10 8 7 8 7 6 6 5 5 5 5 4 5 4 8
1 1 3 9 9 9 10 9 7 4 4 5 6 6 6 7 7 6 6 6 7 9 11 7 9 9 8 7 8 8 6 6 5 5 5 4 4 6
4 2 4 7 6 6 7 7 6 5 5 5 5 5 5 6 7 7 7 8 7 6 5 5 8 11 7 8 10 10 7 8 7 5 5 4 4 5
2 3 3 4 5 6 6 7 7 6 6 5 5 5 6 6 7 8 8 8 7 8 6 4 5 5 6 9 10 10 8 6 7 6 5 5 5 5
0 3 4 5 6 6 7 7 7 7 7 6 6 6 6 7 7 8 9 9 10 9 9 8 9 7 5 2 7 10 8 7 7 7 6 5 6 6
3 4 4 5 6 6 6 7 7 7 6 6 6 6 7 8 9 10 10 9 10 10 10 10 11 11 11 9 8 10 9 7 8 7 6 5 6 7
6 6 5 5 5 5 6 6 6 6 6 6 6 7 7 8 9 10 10 11 11 10 10 10 11 10 10 9 7 7 11 8 7 7 7 4 4 7
6 6 6 6 5 5 5 5 5 5 6 6 7 7 8 9 9 10 10 14 12 11 13 12 10 10 5 6 7 6 6 9 10 8 8 6 4 4
5 5 5 5 4 4 4 4 5 5 5 5 6 7 8 9 10 12 12 13 11 11 11 9 9 8 6 8 9 9 7 6 7 10 8 5 5 6
5 4 4 4 4 3 4 5 6 5 5 6 6 7 8 9 9 10 11 12 11 11 11 10 9 7 7 7 8 8 10 9 6 5 4 5 7 6
Wind_Direction
265 276 287 293 303 300 293 272 225 216 206 182 159 149 132 117 143 156 138 165 188 197 201 203 205 205 205 205 205 207 208 209 209 212 214 218 222 224
236 244 256 276 286 295 301 291 265 238 232 187 162 147 143 140 145 130 110 131 145 182 193 197 197 198 198 199 200 202 204 205 205 208 211 215 217 219
237 233 230 237 261 276 288 290 276 254 238 222 141 137 129 128 135 135 143 131 96 101 150 167 174 179 184 185 183 183 186 188 188 189 189 187 189 193
229 228 228 226 228 243 259 273 274 261 232 212 157 148 147 137 136 136 121 99 92 79 92 106 119 129 140 146 148 149 148 146 145 145 145 148 152 158
231 224 222 218 220 220 229 247 265 268 256 225 186 165 154 142 131 116 99 97 93 93 85 85 92 98 104 111 116 119 120 120 119 119 119 118 115 112
240 229 222 217 215 212 218 222 232 248 250 240 212 173 161 149 138 132 122 108 98 85 79 83 87 87 92 99 105 108 109 110 109 107 105 102 100 98
246 236 228 221 214 209 212 208 210 215 220 227 223 195 170 161 159 148 134 120 102 113 107 96 90 84 82 90 101 108 108 108 107 106 104 102 101 98
250 243 236 230 220 209 207 197 195 204 205 209 218 207 195 173 162 153 144 145 135 135 114 95 91 89 80 80 102 108 109 110 110 108 106 104 102 100
249 244 241 232 212 203 202 199 201 204 199 195 206 207 194 180 165 161 160 157 134 141 119 92 81 80 75 87 102 107 111 113 113 111 109 106 103 100
243 238 233 241 227 206 200 201 205 203 200 201 208 203 197 185 175 166 152 124 113 120 116 105 98 91 88 86 98 108 113 115 116 115 114 109 104 99
241 234 227 227 224 210 204 200 201 201 202 205 202 194 189 197 176 153 149 145 138 132 118 116 125 105 88 88 98 106 111 117 121 123 122 119 115 104
240 234 231 229 214 201 203 200 203 199 188 187 192 194 194 193 181 173 168 159 146 143 159 128 145 134 112 98 115 122 112 113 124 131 136 140 137 118
235 226 224 212 202 199 206 206 205 196 185 181 184 190 190 186 182 183 181 169 160 149 161 146 153 143 127 135 143 149 142 145 140 142 158 176 187 153
238 234 215 195 194 197 202 196 183 185 185 183 185 189 190 186 184 182 179 174 160 148 160 157 152 158 141 140 146 154 156 161 162 167 181 198 209 168
277 284 189 181 184 197 208 190 182 196 200 196 196 194 192 185 171 160 148 132 117 136 154 157 148 149 148 146 148 156 159 174 180 175 172 174 161 147
219 198 165 170 192 213 192 194 205 212 206 207 201 189 179 178 167 153 146 133 120 115 118 135 148 150 147 142 149 158 161 168 178 175 170 169 170 167
197 188 193 186 199 211 203 195 202 209 212 211 202 187 177 175 166 154 149 143 140 148 142 128 124 125 135 145 154 162 165 167 171 173 169 171 180 177
248 219 217 222 218 216 211 203 203 207 206 201 200 187 180 175 166 155 157 157 152 153 153 152 145 136 132 140 165 164 171 174 169 171 175 171 180 183
240 237 230 226 229 229 224 217 210 205 202 198 195 188 178 172 166 162 164 161 156 157 158 161 164 164 167 170 183 185 174 170 164 169 184 180 179 180
230 234 236 234 232 228 226 221 215 206 199 197 190 184 177 170 168 168 167 163 158 157 160 169 178 179 177 166 157 177 184 166 161 170 185 196 179 167
229 230 231 232 230 229 225 216 213 207 191 187 186 179 174 169 170 169 166 163 160 163 170 178 185 181 161 136 142 156 171 173 165 168 180 185 176 161
249 243 233 228 225 226 223 213 207 201 189 185 181 178 175 172 170 169 167 166 168 168 170 170 170 179 175 163 162 160 159 163 168 173 177 187 183 179
246 246 243 237 225 214 211 212 210 195 183 181 178 175 174 172 169 168 166 166 166 165 164 165 172 177 180 171 159 158 161 163 166 167 166 146 125 123